Location: Miles
(41.4492°N, 81.6087°W)
Time: 07:07:12
(UTC+00:00)

deb Explorer IX - All Passes

Search period start: 19 September 2024 00:00
Search period end: 29 September 2024 00:00
Orbit: 504 x 846 km, 38.7° (Epoch: 19 September)

Date Brightness Start Highest point End Pass type
(mag) Time Alt. Az. Time Alt. Az. Time Alt. Az.
19 Sep - 01:12:27 10° WSW 01:18:16 66° S 01:24:05 10° E visible
19 Sep - 02:56:11 10° W 03:02:01 60° SSW 03:07:37 10° ESE visible
19 Sep - 04:40:24 10° W 04:45:22 29° SSW 04:50:04 10° SSE night (unlit)
19 Sep - 22:21:44 10° SSW 22:26:19 26° SSE 22:31:06 10° E daylight
20 Sep - 00:03:58 10° WSW 00:09:36 57° SSE 00:15:24 10° E visible
20 Sep - 01:47:29 10° W 01:53:20 68° S 01:59:08 10° ESE visible
20 Sep - 03:31:23 10° W 03:36:56 43° SSW 03:42:15 10° SE visible
20 Sep - 05:16:38 10° WSW 05:19:53 15° SW 05:23:02 10° S night (unlit)
20 Sep - 21:14:48 10° S 21:18:01 16° SE 21:21:23 10° ESE daylight
20 Sep - 22:55:42 10° SW 23:00:59 44° SSE 23:06:32 10° E daylight
21 Sep - 00:38:49 10° WSW 00:44:34 68° S 00:50:27 10° E visible
21 Sep - 02:22:32 10° W 02:28:18 56° SSW 02:33:57 10° ESE visible
21 Sep - 04:06:50 10° W 04:11:35 26° SSW 04:16:09 10° SSE visible
21 Sep - 21:47:45 10° SSW 21:52:26 30° SSE 21:57:24 10° E daylight
21 Sep - 23:30:13 10° WSW 23:35:47 61° S 23:41:36 10° E daylight
22 Sep - 01:13:44 10° W 01:19:30 66° S 01:25:20 10° ESE visible
22 Sep - 02:57:38 10° W 03:03:02 38° SSW 03:08:19 10° SE visible
22 Sep - 04:43:28 10° WSW 04:45:55 13° SW 04:48:18 10° SSW night (unlit)
22 Sep - 20:40:24 10° S 20:43:59 19° SE 20:47:47 10° ESE daylight
22 Sep - 22:21:47 10° SW 22:27:00 48° SSE 22:32:35 10° E daylight
23 Sep - 00:04:57 10° W 00:10:37 69° S 00:16:29 10° E visible
23 Sep - 01:48:38 10° W 01:54:17 51° SSW 01:59:57 10° ESE visible
23 Sep - 03:33:05 10° W 03:37:29 22° SSW 03:41:48 10° SSE visible
23 Sep - 21:13:37 10° SW 21:18:18 34° SSE 21:23:22 10° E daylight
23 Sep - 22:56:15 10° WSW 23:01:41 64° S 23:07:28 10° E daylight
24 Sep - 00:39:44 10° W 00:45:23 62° S 00:51:13 10° ESE visible
24 Sep - 02:23:39 10° W 02:28:51 33° SSW 02:34:00 10° SE visible
24 Sep - 04:11:12 10° SW 04:11:39 10° SW 04:12:05 10° SW night (unlit)
24 Sep - 20:05:55 10° SSW 20:09:43 21° SSE 20:13:46 10° E daylight
24 Sep - 21:47:40 10° WSW 21:52:47 52° SSE 21:58:19 10° E daylight
24 Sep - 23:30:52 10° W 23:36:23 68° S 23:42:13 10° E daylight
25 Sep - 01:14:30 10° W 01:19:59 46° SSW 01:25:35 10° SE visible
25 Sep - 02:59:11 10° WSW 03:03:06 18° SW 03:07:00 10° S visible
25 Sep - 18:59:32 10° SSE 19:01:14 12° SE 19:03:00 10° ESE daylight
25 Sep - 20:39:17 10° SW 20:43:56 38° SSE 20:49:00 10° E daylight
25 Sep - 22:22:03 10° WSW 22:27:21 66° S 22:33:03 10° E daylight
26 Sep - 00:05:30 10° W 00:10:59 58° SSW 00:16:45 10° ESE visible
26 Sep - 01:49:27 10° W 01:54:21 29° SSW 01:59:19 10° SSE visible
26 Sep - 19:31:19 10° SSW 19:35:11 24° SSE 19:39:24 10° E daylight
26 Sep - 21:13:19 10° WSW 21:18:18 56° SSE 21:23:45 10° E daylight
26 Sep - 22:56:32 10° W 23:01:53 66° S 23:07:38 10° ESE daylight
27 Sep - 00:40:09 10° W 00:45:24 41° SSW 00:50:52 10° SE visible
27 Sep - 02:25:14 10° WSW 02:28:26 15° SW 02:31:40 10° S visible
27 Sep - 18:24:14 10° S 18:26:34 14° SE 18:29:01 10° ESE daylight
27 Sep - 20:04:46 10° SW 20:09:20 41° SSE 20:14:21 10° E daylight
27 Sep - 21:47:37 10° WSW 21:52:44 67° S 21:58:19 10° E daylight
27 Sep - 23:31:01 10° W 23:36:19 53° SSW 23:41:58 10° ESE visible
28 Sep - 01:15:05 10° W 01:19:35 24° SSW 01:24:12 10° SSE visible
28 Sep - 18:56:32 10° SSW 19:00:26 27° SSE 19:04:42 10° E daylight
28 Sep - 20:38:46 10° WSW 20:43:35 59° S 20:48:55 10° E daylight
28 Sep - 22:21:58 10° W 22:27:07 63° S 22:32:44 10° ESE daylight
